Augusta Bush, GA

3:45 PM EDT on April 23, 2018 (GMT -0400)
Augusta Regional At Bush

Weather History for KAGS - December, 2013

Change the Weather History Date:

Thursday, December 5, 2013

  Actual Average Record
Temperature  
Mean Temperature 62 °F 50 °F  
Max Temperature 69 °F 63 °F 80 °F (1998)
Min Temperature 55 °F 36 °F 17 °F (1969)
Degree Days  
Heating Degree Days 3 16  
Month to date heating degree days 41 76  
Since 1 July heating degree days 500 498  
Cooling Degree Days 0 0  
Month to date cooling degree days 0 0  
Year to date cooling degree days 1865 2086  
Growing Degree Days 12 (Base 50)    
Moisture  
Dew Point 62 °F    
Average Humidity 94    
Maximum Humidity 100    
Minimum Humidity 87    
Precipitation  
Precipitation 0.08 in 0.11 in 1.51 in (1938)
Month to date precipitation 0.89 0.53  
Year to date precipitation 49.51 40.71  
Sea Level Pressure  
Sea Level Pressure 30.09 in    
Wind  
Wind Speed 4 mph (South)    
Max Wind Speed 12 mph    
Max Gust Speed 15 mph    
Visibility 5 miles    
Events Fog , Rain    
T = Trace of Precipitation, MM = Missing Value Source: NWS Daily Summary

Daily Weather History Graph

Daily Weather History Graph

Search for Another Location

Airport or City:

Astronomy

Dec. 05, 2013 Rise Set
Actual Time 7:17 AM EST 5:19 PM EST
Civil Twilight 6:49 AM EST 5:47 PM EST
Nautical Twilight 6:19 AM EST 6:18 PM EST
Astronomical Twilight 5:48 AM EST 6:48 PM EST
Moon 9:40 AM EST (12/5) 8:34 PM EST (12/5)
Length of Visible Light 10h 57m
Length of Day
10h 02m
Waxing Crescent, 10% of the Moon is Illuminated
Dec 5
Waxing Crescent
Dec 9
First Quarter
Dec 17
Full
Dec 25
Last Quarter
Jan 1
New

Hourly Weather History & Observations

Time (EST) Temp. Dew Point Humidity Pressure Visibility Wind Dir Wind Speed Gust Speed Precip Events Conditions
12:53 AM 62.1 °F 61.0 °F 96% 30.08 in 8.0 mi Calm Calm - N/A Fog Shallow Fog
1:53 AM 61.0 °F 60.1 °F 97% 30.07 in 6.0 mi Calm Calm - N/A Fog Shallow Fog
2:46 AM 57.2 °F 57.2 °F 100% 30.08 in 1.8 mi South 3.5 mph - N/A Fog Shallow Fog
2:53 AM 57.9 °F 57.9 °F 100% 30.08 in 1.5 mi South 3.5 mph - N/A Fog Shallow Fog
3:02 AM 57.2 °F 57.2 °F 100% 30.08 in 1.0 mi Calm Calm - N/A Fog Shallow Fog
3:13 AM 57.2 °F 57.2 °F 100% 30.08 in 3.0 mi Calm Calm - N/A Fog Shallow Fog
3:19 AM 59.0 °F 59.0 °F 100% 30.08 in 1.8 mi Calm Calm - N/A Fog Shallow Fog
3:22 AM 59.0 °F 57.2 °F 94% 30.08 in 0.8 mi Calm Calm - N/A Fog Shallow Fog
3:32 AM 57.2 °F 57.2 °F 100% 30.08 in 0.2 mi Calm Calm - N/A Fog Shallow Fog
3:48 AM 57.2 °F 57.2 °F 100% 30.08 in 0.2 mi Calm Calm - N/A Fog Shallow Fog
3:53 AM 57.0 °F 57.0 °F 100% 30.08 in 0.2 mi Calm Calm - N/A Fog Shallow Fog
4:00 AM 57.2 °F 57.2 °F 100% 30.08 in 0.2 mi Calm Calm - N/A Fog Shallow Fog
4:34 AM 57.2 °F 57.2 °F 100% 30.08 in 1.0 mi South 4.6 mph - N/A Fog Shallow Fog
4:40 AM 57.2 °F 57.2 °F 100% 30.08 in 3.0 mi South 5.8 mph - N/A Fog Shallow Fog
4:53 AM 60.1 °F 60.1 °F 100% 30.07 in 7.0 mi South 4.6 mph - N/A Fog Shallow Fog
5:53 AM 61.0 °F 61.0 °F 100% 30.08 in 8.0 mi South 4.6 mph - N/A Fog Shallow Fog
6:53 AM 61.0 °F 60.1 °F 97% 30.10 in 6.0 mi Calm Calm - N/A   Overcast
7:53 AM 62.1 °F 61.0 °F 96% 30.11 in 6.0 mi Calm Calm - 0.00 in   Mostly Cloudy
8:53 AM 63.0 °F 62.1 °F 97% 30.12 in 6.0 mi ESE 3.5 mph - 0.00 in   Overcast
9:53 AM 66.0 °F 62.1 °F 87% 30.13 in 10.0 mi South 5.8 mph - 0.00 in   Overcast
10:53 AM 66.9 °F 64.0 °F 90% 30.14 in 4.0 mi South 5.8 mph - 0.01 in Rain Light Rain
11:12 AM 66.2 °F 64.4 °F 94% 30.13 in 2.5 mi South 5.8 mph - 0.01 in Rain Light Rain
11:31 AM 66.2 °F 64.4 °F 94% 30.12 in 1.5 mi SSW 6.9 mph - 0.04 in Rain Rain
11:53 AM 66.0 °F 64.9 °F 96% 30.12 in 2.0 mi South 6.9 mph - 0.06 in Rain Light Rain
11:56 AM 66.2 °F 64.4 °F 94% 30.12 in 3.0 mi South 6.9 mph - 0.00 in Rain Light Rain
12:15 PM 66.2 °F 64.4 °F 94% 30.11 in 3.0 mi SSW 10.4 mph - 0.00 in   Overcast
12:36 PM 66.2 °F 64.4 °F 94% 30.10 in 3.0 mi SSW 11.5 mph - 0.00 in   Overcast
12:53 PM 66.9 °F 64.9 °F 93% 30.10 in 3.0 mi SSW 10.4 mph - 0.00 in   Overcast
1:53 PM 68.0 °F 66.0 °F 93% 30.07 in 3.0 mi South 8.1 mph - 0.01 in   Overcast
2:53 PM 69.1 °F 66.9 °F 93% 30.06 in 4.0 mi SSW 8.1 mph - N/A   Overcast
3:53 PM 69.1 °F 66.9 °F 93% 30.06 in 4.0 mi South 8.1 mph - N/A   Overcast
4:53 PM 68.0 °F 66.0 °F 93% 30.07 in 10.0 mi South 6.9 mph - N/A   Overcast
5:38 PM 68.0 °F 66.2 °F 94% 30.07 in 10.0 mi SSE 3.5 mph - 0.00 in   Overcast
5:53 PM 68.0 °F 66.0 °F 93% 30.07 in 10.0 mi South 4.6 mph - 0.00 in   Overcast
6:53 PM 66.9 °F 64.9 °F 93% 30.08 in 10.0 mi Calm Calm - N/A   Overcast
7:53 PM 66.9 °F 64.9 °F 93% 30.08 in 10.0 mi Calm Calm - N/A   Overcast
8:53 PM 64.9 °F 64.0 °F 97% 30.08 in 10.0 mi ESE 4.6 mph - N/A   Mostly Cloudy
9:53 PM 64.9 °F 64.0 °F 97% 30.08 in 7.0 mi SE 3.5 mph - N/A   Mostly Cloudy
10:53 PM 64.9 °F 64.0 °F 97% 30.08 in 7.0 mi South 4.6 mph - N/A   Clear
11:53 PM 64.9 °F 63.0 °F 93% 30.09 in 9.0 mi South 3.5 mph - N/A   Clear